Location: Woodstock
(35.2731°N, 89.9823°W)
Time: 17:33:39
(UTC+00:00)

Vanguard 3 - Pass Details

Date: 26 May 2025
Orbit: 508 x 3215 km, 33.3° (Epoch: 14 June)

Event Time Altitude Azimuth Distance (km) Brightness Sun altitude
Rises 05:12:11 0° 212° (SSW) 6,880 - -32.6°
Reaches altitude 10° 05:18:08 10° 203° (SSW) 5,545 - -32.8°
Maximum altitude 05:30:15 28° 153° (SSE) 3,325 - -33.2°
Exits shadow 05:38:09 11° 100° (E) 3,647 10.3 -33.4°
Drops below altitude 10° 05:38:27 10° 99° (E) 3,699 10.4 -33.4°
Sets 05:41:28 0° 87° (E) 4,326 10.9 -33.4°
